^^
Station Historical Data
Daily Summary for January 24, 2018 Units:  Metric    English   Both
« Previous Day
Next Day »
Daily Weekly Monthly Yearly Custom
  High: Low: Average:
Temperature: -17.8 °C -19.8 °C -18.4 °C
Dew Point: -17.8 °C -20.3 °C -18.9 °C
Humidity: Humidity% 93% 93%
Wind Speed: 0km/h 0km/h 5.1km/h
Wind Gust: 0km/h - -
Wind- - South
Pressure: 0 hPa 33809.2 hPa -
Precipitation: 297.18 mm    
Historical Graphs
 
 
Tabular Data for January 24, 2018
Time Temperature Dew Point Pressure Wind Wind Speed Wind Gust Humidity Rainfall Rate (Hourly) solar Conditions
-17.8 °C -17.8 °C 0 hPa Calm     Humidity% 0 mm SoftwareType W/m2 Conditions
00:04 -18.4 °C -18.8 °C 34428.8 hPa SSW 0.3 km/h 20.9 km/h 94% 7.62 mm WeatherDisplay:10.37 W/m2 RA
00:09 -18.4 °C -18.8 °C 34428.8 hPa ESE 0.8 km/h 6 km/h 94% 7.62 mm WeatherDisplay:10.37 W/m2 RA
00:14 -18.4 °C -18.8 °C 34428.8 hPa WNW 2.6 km/h 9 km/h 94% 7.62 mm WeatherDisplay:10.37 W/m2 FEW
00:19 -18.4 °C -18.8 °C 34428.8 hPa SSE 7.7 km/h 17.9 km/h 94% 7.62 mm WeatherDisplay:10.37 W/m2 FEW
00:24 -18.4 °C -18.8 °C 34418.7 hPa SSE 1.3 km/h 6 km/h 94% 7.62 mm WeatherDisplay:10.37 W/m2 FEW
00:29 -18.4 °C -18.8 °C 34418.7 hPa East 3.9 km/h 17.9 km/h 94% 7.62 mm WeatherDisplay:10.37 W/m2 FEW
00:34 -18.4 °C -18.8 °C 34418.7 hPa Calm     94% 7.62 mm WeatherDisplay:10.37 W/m2 FEW
00:40 -18.3 °C -18.8 °C 34418.7 hPa SW 5 km/h 11.9 km/h 94% 7.62 mm WeatherDisplay:10.37 W/m2 FEW
00:45 -18.3 °C -18.8 °C 34418.7 hPa SE 6.8 km/h 12.9 km/h 94% 7.62 mm WeatherDisplay:10.37 W/m2 FEW
00:50 -18.3 °C -18.8 °C 34405.1 hPa WSW 2.6 km/h 20.9 km/h 94% 7.62 mm WeatherDisplay:10.37 W/m2 FEW
01:00 -18.3 °C -18.8 °C 34405.1 hPa ESE 4.2 km/h 6 km/h 94% 7.62 mm WeatherDisplay:10.37 W/m2 RA
01:05 -18.3 °C -18.8 °C 34405.1 hPa SSW 1.6 km/h 9 km/h 94% 7.62 mm WeatherDisplay:10.37 W/m2 FEW
01:15 -18.3 °C -18.8 °C 34405.1 hPa SSE 2.6 km/h 10.3 km/h 94% 7.62 mm WeatherDisplay:10.37 W/m2 FEW
01:25 -18.3 °C -18.8 °C 34405.1 hPa Calm     94% 7.62 mm WeatherDisplay:10.37 W/m2 FEW
01:30 -18.4 °C -18.8 °C 34395 hPa SSW 7.7 km/h 15 km/h 94% 7.62 mm WeatherDisplay:10.37 W/m2 FEW
01:35 -18.4 °C -18.8 °C 34395 hPa Calm     94% 7.62 mm WeatherDisplay:10.37 W/m2 FEW
01:40 -18.4 °C -18.8 °C 34395 hPa South 3.7 km/h 15 km/h 94% 7.62 mm WeatherDisplay:10.37 W/m2 FEW
01:45 -18.4 °C -18.9 °C 34395 hPa SW 5.5 km/h 32.8 km/h 93% 7.62 mm WeatherDisplay:10.37 W/m2 FEW
01:50 -18.4 °C -18.9 °C 34395 hPa South 6.8 km/h 17.9 km/h 93% 12.7 mm WeatherDisplay:10.37 W/m2 RA
01:55 -18.4 °C -18.9 °C 34384.8 hPa NW 6.3 km/h 17.9 km/h 93% 7.62 mm WeatherDisplay:10.37 W/m2 RA
02:00 -18.4 °C -18.9 °C 34384.8 hPa SW 1.8 km/h 9 km/h 93% 7.62 mm WeatherDisplay:10.37 W/m2 FEW
02:05 -18.4 °C -18.9 °C 34384.8 hPa West 3.4 km/h 20.9 km/h 93% 7.62 mm WeatherDisplay:10.37 W/m2 FEW
02:10 -18.4 °C -19 °C 34384.8 hPa SSW 3.7 km/h 23.8 km/h 93% 7.62 mm WeatherDisplay:10.37 W/m2 FEW
02:20 -18.4 °C -19 °C 34371.3 hPa SSW 1.8 km/h 9 km/h 93% 12.7 mm WeatherDisplay:10.37 W/m2 RA
02:25 -18.4 °C -19 °C 34371.3 hPa North 6.8 km/h 17.9 km/h 93% 12.7 mm WeatherDisplay:10.37 W/m2 FEW
02:30 -18.4 °C -19 °C 34371.3 hPa SSW 1 km/h 9 km/h 93% 12.7 mm WeatherDisplay:10.37 W/m2 FEW
02:35 -18.4 °C -18.9 °C 34361.1 hPa SE 6 km/h 9 km/h 94% 12.7 mm WeatherDisplay:10.37 W/m2 FEW
02:40 -18.4 °C -18.9 °C 34361.1 hPa South 5.1 km/h 9 km/h 94% 12.7 mm WeatherDisplay:10.37 W/m2 FEW
02:45 -18.4 °C -18.9 °C 34361.1 hPa South 2.1 km/h 23.8 km/h 94% 12.7 mm WeatherDisplay:10.37 W/m2 RA
02:50 -18.4 °C -18.9 °C 34361.1 hPa SSE 9.3 km/h 20.9 km/h 94% 12.7 mm WeatherDisplay:10.37 W/m2 RA
02:55 -18.5 °C -18.9 °C 34361.1 hPa South 0.5 km/h 6 km/h 94% 12.7 mm WeatherDisplay:10.37 W/m2 FEW
03:00 -18.5 °C -19.1 °C 34347.6 hPa SW 4.3 km/h 9 km/h 93% 12.7 mm WeatherDisplay:10.37 W/m2 FEW
03:05 -18.6 °C -19.1 °C 34347.6 hPa ESE 14.5 km/h 29.8 km/h 93% 12.7 mm WeatherDisplay:10.37 W/m2 FEW
03:10 -18.6 °C -19 °C 34347.6 hPa SSW 2.6 km/h 17.9 km/h 94% 12.7 mm WeatherDisplay:10.37 W/m2 FEW
03:15 -18.6 °C -19.1 °C 34347.6 hPa SSW 6 km/h 38.8 km/h 94% 12.7 mm WeatherDisplay:10.37 W/m2 FEW
03:20 -18.6 °C -19.1 °C 34337.4 hPa SSW 13.5 km/h 29.8 km/h 94% 12.7 mm WeatherDisplay:10.37 W/m2 RA
03:25 -18.7 °C -19.1 °C 34337.4 hPa South 1.3 km/h 23.3 km/h 94% 12.7 mm WeatherDisplay:10.37 W/m2 RA
03:30 -18.7 °C -19.1 °C 34337.4 hPa Calm   15 km/h 94% 12.7 mm WeatherDisplay:10.37 W/m2 FEW
03:35 -18.7 °C -19.3 °C 34337.4 hPa SE 4.2 km/h 11.9 km/h 93% 12.7 mm WeatherDisplay:10.37 W/m2 FEW
03:40 -18.8 °C -19.3 °C 34327.3 hPa SE 7.6 km/h 23.8 km/h 93% 12.7 mm WeatherDisplay:10.37 W/m2 FEW
03:55 -18.8 °C -19.3 °C 34327.3 hPa South 1.8 km/h 9 km/h 93% 7.62 mm WeatherDisplay:10.37 W/m2 FEW
04:00 -18.8 °C -19.4 °C 34313.7 hPa SSE 1.6 km/h 17.9 km/h 93% 7.62 mm WeatherDisplay:10.37 W/m2 FEW
04:05 -18.8 °C -19.4 °C 34313.7 hPa SSW 5.1 km/h 29.8 km/h 93% 7.62 mm WeatherDisplay:10.37 W/m2 FEW
04:10 -18.8 °C -19.4 °C 34313.7 hPa SW 5.1 km/h 17.9 km/h 93% 7.62 mm WeatherDisplay:10.37 W/m2 FEW
04:15 -18.8 °C -19.4 °C 34313.7 hPa Calm   9 km/h 93% 7.62 mm WeatherDisplay:10.37 W/m2 FEW
04:20 -18.9 °C -19.4 °C 34313.7 hPa SSE 11.6 km/h 20.9 km/h 93% 0 mm WeatherDisplay:10.37 W/m2 FEW
04:25 -18.9 °C -19.5 °C 34303.6 hPa Calm     93% 0 mm WeatherDisplay:10.37 W/m2 FEW
04:35 -18.9 °C -19.5 °C 34303.6 hPa Calm     93% 7.62 mm WeatherDisplay:10.37 W/m2 RA
04:40 -18.9 °C -19.5 °C 34303.6 hPa SSE 2.3 km/h 9 km/h 93% 7.62 mm WeatherDisplay:10.37 W/m2 FEW
04:45 -18.9 °C -19.5 °C 34293.4 hPa Calm     93% 7.62 mm WeatherDisplay:10.37 W/m2 FEW
04:55 -19 °C -19.6 °C 34293.4 hPa SSW 3.1 km/h 10.3 km/h 93% 7.62 mm WeatherDisplay:10.37 W/m2 FEW
05:00 -19 °C -19.6 °C 34293.4 hPa SSW 17.4 km/h 17.4 km/h 93% 12.7 mm WeatherDisplay:10.37 W/m2 RA
05:05 -19 °C -19.6 °C 34293.4 hPa SSE 10.1 km/h 29.8 km/h 93% 12.7 mm WeatherDisplay:10.37 W/m2 RA
05:15 -19.1 °C -19.6 °C 34279.9 hPa SE 1.3 km/h 9 km/h 93% 12.7 mm WeatherDisplay:10.37 W/m2 FEW
05:20 -19.1 °C -19.7 °C 34279.9 hPa SSW 9.7 km/h 9.7 km/h 93% 12.7 mm WeatherDisplay:10.37 W/m2 RA
05:25 -19.2 °C -19.7 °C 34279.9 hPa SSW 0.8 km/h 6 km/h 93% 12.7 mm WeatherDisplay:10.37 W/m2 FEW
05:30 -19.2 °C -19.8 °C 34269.7 hPa SSE 7.6 km/h 32.8 km/h 93% 12.7 mm WeatherDisplay:10.37 W/m2 FEW
05:35 -19.2 °C -19.8 °C 34269.7 hPa SW 8.9 km/h 17.9 km/h 93% 12.7 mm WeatherDisplay:10.37 W/m2 FEW
05:40 -19.3 °C -19.8 °C 34269.7 hPa SE 5.1 km/h 28.5 km/h 93% 12.7 mm WeatherDisplay:10.37 W/m2 RA
05:45 -19.3 °C -19.8 °C 34269.7 hPa SSE 9 km/h 29.8 km/h 93% 12.7 mm WeatherDisplay:10.37 W/m2 RA
05:50 -19.3 °C -19.8 °C 34256.2 hPa SE 9.3 km/h 26.9 km/h 93% 12.7 mm WeatherDisplay:10.37 W/m2 FEW
05:55 -19.3 °C -19.9 °C 34256.2 hPa SE 6.4 km/h 15 km/h 93% 12.7 mm WeatherDisplay:10.37 W/m2 FEW
06:00 -19.3 °C -19.9 °C 34246 hPa SSE 9.7 km/h 20.9 km/h 93% 12.7 mm WeatherDisplay:10.37 W/m2 FEW
06:05 -19.4 °C -19.9 °C 34246 hPa SSW 6 km/h 17.9 km/h 93% 12.7 mm WeatherDisplay:10.37 W/m2 RA
06:10 -19.4 °C -19.9 °C 34246 hPa South 8.9 km/h 26.9 km/h 93% 12.7 mm WeatherDisplay:10.37 W/m2 RA
06:20 -19.4 °C -20 °C 34246 hPa SSW 5 km/h 26.9 km/h 93% 12.7 mm WeatherDisplay:10.37 W/m2 FEW
06:25 -19.4 °C -19.9 °C 34235.8 hPa SSE 2.9 km/h 20.9 km/h 93% 12.7 mm WeatherDisplay:10.37 W/m2 RA
06:30 -19.4 °C -19.9 °C 34235.8 hPa SE 5.5 km/h 26.9 km/h 93% 12.7 mm WeatherDisplay:10.37 W/m2 RA
06:35 -19.4 °C -20 °C 34222.3 hPa SW 4.7 km/h 20.9 km/h 93% 12.7 mm WeatherDisplay:10.37 W/m2 FEW
06:40 -19.4 °C -20 °C 34222.3 hPa South 5.5 km/h 6 km/h 93% 12.7 mm WeatherDisplay:10.37 W/m2 FEW
06:50 -19.5 °C -20 °C 34212.1 hPa SSE 10.9 km/h 26.9 km/h 93% 12.7 mm WeatherDisplay:10.37 W/m2 RA
07:00 -19.5 °C -20 °C 34212.1 hPa South 8.9 km/h 23.8 km/h 93% 20.32 mm WeatherDisplay:10.37 W/m2 RA
07:05 -19.5 °C -20 °C 34212.1 hPa SE 6.9 km/h 11.9 km/h 93% 12.7 mm WeatherDisplay:10.37 W/m2 RA
07:10 -19.5 °C -20 °C 34198.6 hPa SSE 2.6 km/h 9 km/h 93% 20.32 mm WeatherDisplay:10.37 W/m2 RA
07:15 -19.5 °C -20 °C 34198.6 hPa South 3.9 km/h 17.9 km/h 93% 20.32 mm WeatherDisplay:10.37 W/m2 RA
07:20 -19.5 °C -20 °C 34198.6 hPa South 0.5 km/h 17.9 km/h 93% 20.32 mm WeatherDisplay:10.37 W/m2 FEW
07:25 -19.5 °C -20.1 °C 34198.6 hPa SW 6.8 km/h 15 km/h 93% 12.7 mm WeatherDisplay:10.37 W/m2 FEW
07:30 -19.5 °C -20.1 °C 34188.4 hPa SSE 11.1 km/h 18.2 km/h 93% 20.32 mm WeatherDisplay:10.37 W/m2 RA
07:35 -19.5 °C -20.1 °C 34188.4 hPa SE 2.6 km/h 11.9 km/h 93% 20.32 mm WeatherDisplay:10.37 W/m2 RA
07:40 -19.6 °C -20 °C 34178.3 hPa SSE 3.4 km/h 11.9 km/h 94% 20.32 mm WeatherDisplay:10.37 W/m2 FEW
07:45 -19.6 °C -20 °C 34178.3 hPa SSE 5.1 km/h 23.8 km/h 94% 12.7 mm WeatherDisplay:10.37 W/m2 FEW
07:50 -19.6 °C -20.1 °C 34178.3 hPa South 4.7 km/h 15 km/h 94% 20.32 mm WeatherDisplay:10.37 W/m2 RA
07:55 -19.6 °C -20.1 °C 34164.7 hPa South 0.5 km/h 6 km/h 94% 20.32 mm WeatherDisplay:10.37 W/m2 RA
08:00 -19.6 °C -20.1 °C 34164.7 hPa SSE 6.8 km/h 26.9 km/h 94% 12.7 mm WeatherDisplay:10.37 W/m2 FEW
08:05 -19.6 °C -20.2 °C 34164.7 hPa Calm   3.1 km/h 93% 12.7 mm WeatherDisplay:10.37 W/m2 FEW
08:10 -19.6 °C -20.2 °C 34164.7 hPa South 3.7 km/h 20.9 km/h 93% 12.7 mm WeatherDisplay:10.37 W/m2 RA
08:15 -19.6 °C -20.1 °C 34154.6 hPa SE 7.6 km/h 15.6 km/h 94% 12.7 mm WeatherDisplay:10.37 W/m2 RA
08:30 -19.7 °C -20.2 °C 34144.4 hPa SSE 7.2 km/h 9 km/h 94% 12.7 mm WeatherDisplay:10.37 W/m2 RA
08:35 -19.7 °C -20.2 °C 34144.4 hPa SSE 5.1 km/h 29.8 km/h 94% 12.7 mm WeatherDisplay:10.37 W/m2 RA
08:45 -19.7 °C -20.2 °C 34130.9 hPa SE 6.9 km/h 17.9 km/h 94% 12.7 mm WeatherDisplay:10.37 W/m2 FEW
08:50 -19.7 °C -20.2 °C 34130.9 hPa SE 3.7 km/h 9 km/h 94% 12.7 mm WeatherDisplay:10.37 W/m2 FEW
08:55 -19.7 °C -20.2 °C 34130.9 hPa SE 3.4 km/h 17.9 km/h 94% 12.7 mm WeatherDisplay:10.37 W/m2 FEW
09:00 -19.7 °C -20.2 °C 34130.9 hPa SSE 10.3 km/h 35.7 km/h 94% 12.7 mm WeatherDisplay:10.37 W/m2 RA
09:05 -19.7 °C -20.2 °C 34130.9 hPa SSE 4.7 km/h 17.9 km/h 94% 12.7 mm WeatherDisplay:10.37 W/m2 RA
09:10 -19.7 °C -20.2 °C 34130.9 hPa SW 7.6 km/h 15 km/h 94% 12.7 mm WeatherDisplay:10.37 W/m2 FEW
09:15 -19.8 °C -20.2 °C 34120.7 hPa SSE 11.6 km/h 26.9 km/h 94% 12.7 mm WeatherDisplay:10.37 W/m2 FEW
09:20 -19.8 °C -20.3 °C 34120.7 hPa SSE 7.7 km/h 15 km/h 93% 12.7 mm WeatherDisplay:10.37 W/m2 FEW
09:25 -19.8 °C -20.3 °C 34120.7 hPa South 7.2 km/h 29.8 km/h 93% 12.7 mm WeatherDisplay:10.37 W/m2 FEW
09:30 -19.8 °C -20.3 °C 34107.2 hPa South 14 km/h 20.9 km/h 93% 12.7 mm WeatherDisplay:10.37 W/m2 RA
09:35 -19.8 °C -20.3 °C 34107.2 hPa South 10.6 km/h 20.9 km/h 93% 12.7 mm WeatherDisplay:10.37 W/m2 RA
09:40 -19.7 °C -20.2 °C 34107.2 hPa ESE 10.1 km/h 20.9 km/h 94% 12.7 mm WeatherDisplay:10.37 W/m2 FEW
09:55 -19.7 °C -20.2 °C 34097 hPa SSW 6 km/h 11.9 km/h 94% 20.32 mm WeatherDisplay:10.37 W/m2 RA
10:00 -19.7 °C -20.2 °C 34097 hPa East 10.6 km/h 17.9 km/h 94% 20.32 mm WeatherDisplay:10.37 W/m2 RA
10:05 -19.7 °C -20.2 °C 34086.9 hPa South 3.4 km/h 10.3 km/h 94% 20.32 mm WeatherDisplay:10.37 W/m2 RA
10:10 -19.7 °C -20.2 °C 34086.9 hPa SSE 11.4 km/h 29.8 km/h 94% 25.4 mm WeatherDisplay:10.37 W/m2 RA
10:20 -19.7 °C -20.2 °C 34073.3 hPa SE 6.8 km/h 11.9 km/h 94% 33.02 mm WeatherDisplay:10.37 W/m2 RA
10:25 -19.7 °C -20.1 °C 34073.3 hPa SSW 3.7 km/h 23.8 km/h 94% 33.02 mm WeatherDisplay:10.37 W/m2 RA
10:30 -19.6 °C -20.1 °C 34073.3 hPa SSE 6.3 km/h 29.8 km/h 94% 33.02 mm WeatherDisplay:10.37 W/m2 RA
10:35 -19.6 °C -20.1 °C 34063.2 hPa East 6.9 km/h 18.2 km/h 94% 38.1 mm WeatherDisplay:10.37 W/m2 RA
10:40 -19.6 °C -20.1 °C 34063.2 hPa SSW 6.4 km/h 23.8 km/h 94% 38.1 mm WeatherDisplay:10.37 W/m2 RA
10:45 -19.6 °C -20.1 °C 34063.2 hPa SSE 6.4 km/h 25.9 km/h 94% 38.1 mm WeatherDisplay:10.37 W/m2 RA
10:50 -19.6 °C -20.1 °C 34049.6 hPa SSE 4.2 km/h 9 km/h 94% 38.1 mm WeatherDisplay:10.37 W/m2 RA
10:55 -19.6 °C -20.1 °C 34049.6 hPa SSE 2.6 km/h   94% 38.1 mm WeatherDisplay:10.37 W/m2 RA
11:00 -19.6 °C -20.1 °C 34049.6 hPa South 6.9 km/h 20.9 km/h 94% 38.1 mm WeatherDisplay:10.37 W/m2 RA
11:05 -19.6 °C -20.1 °C 34049.6 hPa WSW 5.6 km/h 9 km/h 94% 38.1 mm WeatherDisplay:10.37 W/m2 RA
11:10 -19.6 °C -20.1 °C 34049.6 hPa SSE 2.1 km/h 20.9 km/h 94% 38.1 mm WeatherDisplay:10.37 W/m2 RA
11:15 -19.6 °C -20.1 °C 34049.6 hPa South 9 km/h 15 km/h 94% 38.1 mm WeatherDisplay:10.37 W/m2 RA
11:25 -19.6 °C -20 °C 34049.6 hPa SE 5 km/h 9 km/h 94% 33.02 mm WeatherDisplay:10.37 W/m2 FEW
11:30 -19.6 °C -20 °C 34029.3 hPa South 10.6 km/h 23.8 km/h 94% 33.02 mm WeatherDisplay:10.37 W/m2 FEW
11:35 -19.6 °C -20 °C 34039.5 hPa SE 9.8 km/h 31.1 km/h 94% 25.4 mm WeatherDisplay:10.37 W/m2 FEW
11:40 -19.5 °C -19.9 °C 34029.3 hPa SSE 6.3 km/h 20.9 km/h 94% 20.32 mm WeatherDisplay:10.37 W/m2 FEW
11:45 -19.5 °C -19.9 °C 34029.3 hPa SSE 6.9 km/h 9 km/h 94% 20.32 mm WeatherDisplay:10.37 W/m2 FEW
11:50 -19.5 °C -19.9 °C 34029.3 hPa South 8 km/h 23.8 km/h 94% 20.32 mm WeatherDisplay:10.37 W/m2 RA
11:55 -19.4 °C -19.9 °C 34029.3 hPa Calm     94% 20.32 mm WeatherDisplay:10.37 W/m2 RA
12:00 -19.4 °C -19.9 °C 34015.8 hPa SSE 13.2 km/h 29.8 km/h 94% 25.4 mm WeatherDisplay:10.37 W/m2 RA
12:05 -19.4 °C -19.9 °C 34015.8 hPa South 3.7 km/h 11.9 km/h 94% 25.4 mm WeatherDisplay:10.37 W/m2 RA
12:10 -19.4 °C -19.9 °C 34015.8 hPa SSE 8.2 km/h 26.9 km/h 94% 25.4 mm WeatherDisplay:10.37 W/m2 RA
12:15 -19.4 °C -19.9 °C 34015.8 hPa SE 8.2 km/h 11.9 km/h 94% 25.4 mm WeatherDisplay:10.37 W/m2 RA
12:20 -19.4 °C -19.9 °C 34005.6 hPa SE 3.7 km/h 10.3 km/h 94% 25.4 mm WeatherDisplay:10.37 W/m2 RA
12:25 -19.4 °C -19.9 °C 34005.6 hPa SE 1.3 km/h 20.9 km/h 94% 33.02 mm WeatherDisplay:10.37 W/m2 RA
12:30 -19.4 °C -19.8 °C 34005.6 hPa SSE 4.2 km/h 29.8 km/h 94% 33.02 mm WeatherDisplay:10.37 W/m2 RA
12:35 -19.4 °C -19.8 °C 34005.6 hPa South 12.4 km/h 15 km/h 94% 38.1 mm WeatherDisplay:10.37 W/m2 RA
12:40 -19.4 °C -19.9 °C 34005.6 hPa South 5.5 km/h 23.8 km/h 94% 38.1 mm WeatherDisplay:10.37 W/m2 RA
12:45 -19.4 °C -19.8 °C 33992.1 hPa ESE 11.4 km/h 23.8 km/h 94% 38.1 mm WeatherDisplay:10.37 W/m2 RA
12:50 -19.4 °C -19.8 °C 33992.1 hPa South 3.9 km/h 9 km/h 94% 38.1 mm WeatherDisplay:10.37 W/m2 RA
12:55 -19.4 °C -19.8 °C 33992.1 hPa SSW 5.5 km/h 23.3 km/h 94% 38.1 mm WeatherDisplay:10.37 W/m2 RA
13:00 -19.4 °C -19.8 °C 33992.1 hPa ENE 10.6 km/h 26.9 km/h 94% 38.1 mm WeatherDisplay:10.37 W/m2 RA
13:05 -19.3 °C -19.8 °C 33992.1 hPa South 15 km/h 29.8 km/h 94% 38.1 mm WeatherDisplay:10.37 W/m2 RA
13:10 -19.3 °C -19.8 °C 33992.1 hPa SSE 6.9 km/h 7.7 km/h 94% 38.1 mm WeatherDisplay:10.37 W/m2 RA
13:15 -19.3 °C -19.8 °C 33981.9 hPa ESE 5.5 km/h 23.8 km/h 94% 38.1 mm WeatherDisplay:10.37 W/m2 RA
13:20 -19.3 °C -19.8 °C 33981.9 hPa ESE 10.1 km/h 29.8 km/h 94% 38.1 mm WeatherDisplay:10.37 W/m2 RA
13:25 -19.3 °C -19.8 °C 33981.9 hPa SE 6.4 km/h 20.9 km/h 94% 38.1 mm WeatherDisplay:10.37 W/m2 RA
13:30 -19.3 °C -19.8 °C 33981.9 hPa SSE 6.9 km/h 15.6 km/h 94% 38.1 mm WeatherDisplay:10.37 W/m2 RA
13:35 -19.3 °C -19.8 °C 33971.7 hPa SE 9.7 km/h 23.8 km/h 94% 38.1 mm WeatherDisplay:10.37 W/m2 FEW
13:40 -19.3 °C -19.8 °C 33971.7 hPa SE 8 km/h 20.9 km/h 94% 38.1 mm WeatherDisplay:10.37 W/m2 RA
13:45 -19.3 °C -19.7 °C 33971.7 hPa SSE 4.2 km/h 23.3 km/h 94% 38.1 mm WeatherDisplay:10.37 W/m2 RA
13:50 -19.3 °C -19.7 °C 33971.7 hPa South 6.3 km/h 17.9 km/h 94% 38.1 mm WeatherDisplay:10.37 W/m2 RA
13:55 -19.3 °C -19.7 °C 33958.2 hPa SW 3.1 km/h 10.3 km/h 94% 38.1 mm WeatherDisplay:10.37 W/m2 RA
14:00 -19.2 °C -19.7 °C 33971.7 hPa SSW 3.1 km/h 9 km/h 94% 38.1 mm WeatherDisplay:10.37 W/m2 RA
14:05 -19.2 °C -19.7 °C 33958.2 hPa SSW 8 km/h 17.9 km/h 94% 38.1 mm WeatherDisplay:10.37 W/m2 RA
14:10 -19.2 °C -19.7 °C 33958.2 hPa South 7.6 km/h 7.7 km/h 94% 38.1 mm WeatherDisplay:10.37 W/m2 RA
14:15 -19.2 °C -19.7 °C 33948 hPa SSE 12.9 km/h 12.9 km/h 94% 38.1 mm WeatherDisplay:10.37 W/m2 RA
14:20 -19.2 °C -19.6 °C 33948 hPa SSE 0.5 km/h 29.8 km/h 94% 33.02 mm WeatherDisplay:10.37 W/m2 RA
14:25 -19.1 °C -19.6 °C 33948 hPa SSE 10.6 km/h 20.9 km/h 94% 33.02 mm WeatherDisplay:10.37 W/m2 RA
14:30 -19.1 °C -19.6 °C 33937.9 hPa SSE 5.6 km/h 18.2 km/h 94% 33.02 mm WeatherDisplay:10.37 W/m2 RA
14:35 -19.1 °C -19.6 °C 33937.9 hPa SSW 3.4 km/h 9 km/h 94% 33.02 mm WeatherDisplay:10.37 W/m2 RA
14:40 -19.1 °C -19.6 °C 33937.9 hPa NE 0.8 km/h 6 km/h 94% 33.02 mm WeatherDisplay:10.37 W/m2 RA
14:45 -19.1 °C -19.6 °C 33937.9 hPa SSE 13.7 km/h 20.9 km/h 94% 25.4 mm WeatherDisplay:10.37 W/m2 RA
14:50 -19.1 °C -19.5 °C 33937.9 hPa South 9 km/h 20.9 km/h 94% 25.4 mm WeatherDisplay:10.37 W/m2 FEW
14:55 -19.1 °C -19.5 °C 33924.3 hPa SSE 12.9 km/h 26.9 km/h 94% 25.4 mm WeatherDisplay:10.37 W/m2 RA
15:00 -19.1 °C -19.5 °C 33924.3 hPa South 1.8 km/h 26.9 km/h 94% 25.4 mm WeatherDisplay:10.37 W/m2 RA
15:05 -19 °C -19.4 °C 33924.3 hPa SSE 2.3 km/h 11.9 km/h 94% 25.4 mm WeatherDisplay:10.37 W/m2 RA
15:10 -19 °C -19.4 °C 33924.3 hPa SSE 4.7 km/h 15 km/h 94% 25.4 mm WeatherDisplay:10.37 W/m2 RA
15:15 -18.9 °C -19.4 °C 33924.3 hPa SE 9 km/h 26.9 km/h 94% 20.32 mm WeatherDisplay:10.37 W/m2 FEW
15:20 -18.9 °C -19.4 °C 33924.3 hPa SE 2.3 km/h 23.3 km/h 94% 20.32 mm WeatherDisplay:10.37 W/m2 FEW
15:25 -18.8 °C -19.3 °C 33924.3 hPa SE 6.9 km/h 17.9 km/h 94% 20.32 mm WeatherDisplay:10.37 W/m2 FEW
15:30 -18.8 °C -19.3 °C 33924.3 hPa Calm   26.9 km/h 94% 12.7 mm WeatherDisplay:10.37 W/m2 FEW
15:40 -18.7 °C -19.2 °C 33924.3 hPa SSE 6.3 km/h 17.9 km/h 94% 12.7 mm WeatherDisplay:10.37 W/m2 FEW
15:45 -18.7 °C -19.1 °C 33924.3 hPa SW 6.9 km/h 20.9 km/h 94% 12.7 mm WeatherDisplay:10.37 W/m2 FEW
15:50 -18.6 °C -19.1 °C 33924.3 hPa SSE 5 km/h 10.3 km/h 94% 12.7 mm WeatherDisplay:10.37 W/m2 FEW
15:55 -18.5 °C -19 °C 33924.3 hPa North 2.1 km/h 11.9 km/h 94% 7.62 mm WeatherDisplay:10.37 W/m2 FEW
16:00 -18.5 °C -18.9 °C 33924.3 hPa SSE 5.6 km/h 11.9 km/h 94% 7.62 mm WeatherDisplay:10.37 W/m2 FEW
16:05 -18.4 °C -18.9 °C 33924.3 hPa SSE 8.2 km/h 11.9 km/h 93% 0 mm WeatherDisplay:10.37 W/m2 FEW
16:10 -18.4 °C -18.8 °C 33924.3 hPa SSE 5.1 km/h 18.2 km/h 94% 0 mm WeatherDisplay:10.37 W/m2 FEW
16:15 -18.3 °C -18.8 °C 33924.3 hPa NNE 2.3 km/h 11.9 km/h 93% 0 mm WeatherDisplay:10.37 W/m2 FEW
16:20 -18.2 °C -18.8 °C 33924.3 hPa South 8 km/h 15 km/h 93% 0 mm WeatherDisplay:10.37 W/m2 FEW
16:25 -18.2 °C -18.7 °C 33924.3 hPa North 1 km/h 6 km/h 93% 0 mm WeatherDisplay:10.37 W/m2 FEW
16:30 -18 °C -18.6 °C 33924.3 hPa South 8.2 km/h 9 km/h 93% 7.62 mm WeatherDisplay:10.37 W/m2 RA
16:35 -17.9 °C -18.5 °C 33924.3 hPa South 1.6 km/h 6 km/h 93% 7.62 mm WeatherDisplay:10.37 W/m2 RA
16:40 -17.8 °C -18.4 °C 33924.3 hPa SW 3.1 km/h 15 km/h 93% 7.62 mm WeatherDisplay:10.37 W/m2 FEW
16:45 -17.7 °C -18.3 °C 33924.3 hPa South 2.3 km/h 9 km/h 93% 7.62 mm WeatherDisplay:10.37 W/m2 FEW
16:50 -17.7 °C -18.2 °C 33924.3 hPa SE 5.1 km/h 15 km/h 93% 7.62 mm WeatherDisplay:10.37 W/m2 FEW
16:55 -17.7 °C -18.2 °C 33914.2 hPa SSW 2.3 km/h 9 km/h 93% 7.62 mm WeatherDisplay:10.37 W/m2 FEW
17:00 -17.7 °C -18.2 °C 33914.2 hPa Calm     93% 7.62 mm WeatherDisplay:10.37 W/m2 FEW
17:05 -17.6 °C -18.2 °C 33914.2 hPa Calm     93% 7.62 mm WeatherDisplay:10.37 W/m2 FEW
17:10 -17.6 °C -18.2 °C 33914.2 hPa SSE 0.8 km/h 9 km/h 93% 7.62 mm WeatherDisplay:10.37 W/m2 FEW
17:20 -17.6 °C -18.2 °C 33914.2 hPa ESE 3.7 km/h 7.7 km/h 93% 7.62 mm WeatherDisplay:10.37 W/m2 FEW
17:25 -17.6 °C -18.1 °C 33914.2 hPa SSE 0.5 km/h 6 km/h 93% 7.62 mm WeatherDisplay:10.37 W/m2 FEW
17:30 -17.6 °C -18.1 °C 33914.2 hPa South 2.6 km/h 6 km/h 93% 0 mm WeatherDisplay:10.37 W/m2 FEW
17:35 -17.6 °C -18.1 °C 33914.2 hPa Calm     93% 0 mm WeatherDisplay:10.37 W/m2 FEW
17:40 -17.6 °C -18.1 °C 33914.2 hPa Calm     93% 0 mm WeatherDisplay:10.37 W/m2 FEW
17:45 -17.6 °C -18.1 °C 33914.2 hPa SE 2.3 km/h   93% 0 mm WeatherDisplay:10.37 W/m2 FEW
17:50 -17.6 °C -18.1 °C 33914.2 hPa Calm     93% 0 mm WeatherDisplay:10.37 W/m2 FEW
17:55 -17.5 °C -18.1 °C 33914.2 hPa Calm   9 km/h 93% 0 mm WeatherDisplay:10.37 W/m2 FEW
18:00 -17.4 °C -18 °C 33914.2 hPa Calm   3.1 km/h 93% 0 mm WeatherDisplay:10.37 W/m2 FEW
18:10 -17.4 °C -17.9 °C 33914.2 hPa Calm     94% 0 mm WeatherDisplay:10.37 W/m2 FEW
18:15 -17.4 °C -17.9 °C 33924.3 hPa Calm   2.6 km/h 94% 0 mm WeatherDisplay:10.37 W/m2 FEW
18:20 -17.4 °C -17.8 °C 33914.2 hPa SSW 1.8 km/h 9 km/h 94% 0 mm WeatherDisplay:10.37 W/m2 FEW
18:25 -17.3 °C -17.8 °C 33924.3 hPa Calm     94% 0 mm WeatherDisplay:10.37 W/m2 FEW
18:30 -17.3 °C -17.7 °C 33914.2 hPa SW 7.6 km/h 11.9 km/h 94% 0 mm WeatherDisplay:10.37 W/m2 FEW
18:35 -17.2 °C -17.7 °C 33914.2 hPa SSW 2.6 km/h 15 km/h 94% 0 mm WeatherDisplay:10.37 W/m2 FEW
18:40 -17.2 °C -17.7 °C 33914.2 hPa South 0.3 km/h 3.1 km/h 94% 0 mm WeatherDisplay:10.37 W/m2 FEW
18:45 -17.2 °C -17.7 °C 33914.2 hPa Calm     94% 0 mm WeatherDisplay:10.37 W/m2 FEW
18:50 -17.2 °C -17.7 °C 33914.2 hPa SSW 2.9 km/h   94% 0 mm WeatherDisplay:10.37 W/m2 FEW
19:00 -17.1 °C -17.6 °C 33914.2 hPa SSE 6 km/h 9 km/h 94% 0 mm WeatherDisplay:10.37 W/m2 FEW
19:05 -17.1 °C -17.6 °C 33914.2 hPa Calm     94% 0 mm WeatherDisplay:10.37 W/m2 FEW
19:10 -17.1 °C -17.6 °C 33914.2 hPa SSW 0.8 km/h 6 km/h 94% 0 mm WeatherDisplay:10.37 W/m2 FEW
19:15 -17 °C -17.4 °C 33914.2 hPa SW 2.1 km/h 12.9 km/h 94% 0 mm WeatherDisplay:10.37 W/m2 FEW
19:20 -16.9 °C -17.4 °C 33914.2 hPa South 5.1 km/h 15 km/h 94% 0 mm WeatherDisplay:10.37 W/m2 FEW
19:25 -16.8 °C -17.3 °C 33914.2 hPa Calm     94% 0 mm WeatherDisplay:10.37 W/m2 FEW
19:30 -16.8 °C -17.3 °C 33914.2 hPa South 2.1 km/h 12.9 km/h 94% 0 mm WeatherDisplay:10.37 W/m2 FEW
19:35 -16.9 °C -17.4 °C 33914.2 hPa SSE 3.1 km/h 23.8 km/h 94% 0 mm WeatherDisplay:10.37 W/m2 FEW
19:40 -16.8 °C -17.3 °C 33914.2 hPa Calm     94% 0 mm WeatherDisplay:10.37 W/m2 FEW
19:45 -16.8 °C -17.3 °C 33914.2 hPa Calm   6 km/h 94% 0 mm WeatherDisplay:10.37 W/m2 FEW
19:50 -16.8 °C -17.3 °C 33914.2 hPa SSE 0.5 km/h 29.8 km/h 94% 0 mm WeatherDisplay:10.37 W/m2 FEW
19:55 -16.8 °C -17.3 °C 33914.2 hPa SSE 2.6 km/h 3.1 km/h 94% 0 mm WeatherDisplay:10.37 W/m2 FEW
20:00 -16.7 °C -17.2 °C 33900.6 hPa WSW 4.2 km/h 20.9 km/h 94% 0 mm WeatherDisplay:10.37 W/m2 FEW
20:05 -16.7 °C -17.2 °C 33914.2 hPa SSE 0.5 km/h 6 km/h 94% 0 mm WeatherDisplay:10.37 W/m2 FEW
20:15 -16.6 °C -17.1 °C 33914.2 hPa SW 1 km/h 20.9 km/h 94% 0 mm WeatherDisplay:10.37 W/m2 FEW
20:20 -16.7 °C -17.2 °C 33914.2 hPa SSE 3.1 km/h 9 km/h 94% 0 mm WeatherDisplay:10.37 W/m2 FEW
20:25 -16.7 °C -17.2 °C 33914.2 hPa WNW 0.3 km/h 6 km/h 94% 0 mm WeatherDisplay:10.37 W/m2 FEW
20:30 -16.6 °C -17.1 °C 33914.2 hPa South 3.7 km/h 20.9 km/h 94% 0 mm WeatherDisplay:10.37 W/m2 FEW
20:35 -16.6 °C -17.1 °C 33914.2 hPa South 6.4 km/h 20.9 km/h 94% 0 mm WeatherDisplay:10.37 W/m2 FEW
20:40 -16.6 °C -17.1 °C 33914.2 hPa NW 7.2 km/h 15 km/h 94% 0 mm WeatherDisplay:10.37 W/m2 FEW
20:45 -16.5 °C -17 °C 33914.2 hPa NNW 3.4 km/h 23.8 km/h 94% 0 mm WeatherDisplay:10.37 W/m2 FEW
20:55 -16.4 °C -16.9 °C 33900.6 hPa South 12.7 km/h 29.8 km/h 94% 0 mm WeatherDisplay:10.37 W/m2 FEW
21:00 -16.4 °C -16.9 °C 33900.6 hPa SSW 5.6 km/h 11.9 km/h 94% 0 mm WeatherDisplay:10.37 W/m2 FEW
21:05 -16.4 °C -16.9 °C 33900.6 hPa ESE 2.3 km/h 9 km/h 94% 0 mm WeatherDisplay:10.37 W/m2 FEW
21:10 -16.4 °C -16.9 °C 33900.6 hPa West 5 km/h 15 km/h 94% 0 mm WeatherDisplay:10.37 W/m2 FEW
21:15 -16.4 °C -16.9 °C 33900.6 hPa NNW 5 km/h 15 km/h 94% 0 mm WeatherDisplay:10.37 W/m2 FEW
21:20 -16.4 °C -16.8 °C 33900.6 hPa SE 5.1 km/h 15 km/h 95% 0 mm WeatherDisplay:10.37 W/m2 FEW
21:25 -16.4 °C -16.9 °C 33900.6 hPa SSE 7.6 km/h 29.8 km/h 94% 0 mm WeatherDisplay:10.37 W/m2 FEW
21:30 -16.4 °C -16.8 °C 33900.6 hPa SSW 9.8 km/h 23.8 km/h 95% 0 mm WeatherDisplay:10.37 W/m2 FEW
21:35 -16.3 °C -16.8 °C 33900.6 hPa SSW 3.9 km/h 15 km/h 95% 0 mm WeatherDisplay:10.37 W/m2 FEW
21:40 -16.4 °C -16.8 °C 33900.6 hPa SSW 2.3 km/h 10.3 km/h 95% 0 mm WeatherDisplay:10.37 W/m2 FEW
21:45 -16.3 °C -16.8 °C 33900.6 hPa SSW 7.2 km/h 15 km/h 95% 0 mm WeatherDisplay:10.37 W/m2 FEW
21:50 -16.3 °C -16.8 °C 33900.6 hPa SSW 3.9 km/h 20.9 km/h 95% 0 mm WeatherDisplay:10.37 W/m2 FEW
21:55 -16.3 °C -16.8 °C 33890.5 hPa WSW 7.6 km/h 26.9 km/h 95% 0 mm WeatherDisplay:10.37 W/m2 FEW
22:05 -16.3 °C -16.8 °C 33890.5 hPa South 0.5 km/h 6 km/h 95% 0 mm WeatherDisplay:10.37 W/m2 FEW
22:10 -16.3 °C -16.8 °C 33890.5 hPa South 5.1 km/h 10.3 km/h 95% 0 mm WeatherDisplay:10.37 W/m2 FEW
22:15 -16.3 °C -16.8 °C 33890.5 hPa SW 4.3 km/h 25.9 km/h 95% 0 mm WeatherDisplay:10.37 W/m2 FEW
22:25 -16.4 °C -16.8 °C 33890.5 hPa South 0.3 km/h 15 km/h 95% 0 mm WeatherDisplay:10.37 W/m2 FEW
22:30 -16.3 °C -16.8 °C 33890.5 hPa SW 7.6 km/h 20.8 km/h 95% 7.62 mm WeatherDisplay:10.37 W/m2 RA
22:35 -16.3 °C -16.7 °C 33880.3 hPa SSW 5 km/h 20.9 km/h 95% 7.62 mm WeatherDisplay:10.37 W/m2 RA
22:45 -16.4 °C -16.8 °C 33856.6 hPa SSW 2.3 km/h 26.9 km/h 95% 12.7 mm WeatherDisplay:10.37 W/m2 RA
22:50 -16.4 °C -16.9 °C 33843.1 hPa South 6.3 km/h 18.2 km/h 94% 12.7 mm WeatherDisplay:10.37 W/m2 RA
22:55 -16.4 °C -16.9 °C 33856.6 hPa SSE 6.3 km/h 17.9 km/h 94% 12.7 mm WeatherDisplay:10.37 W/m2 FEW
23:00 -16.5 °C -17 °C 33843.1 hPa South 4.7 km/h 15 km/h 94% 12.7 mm WeatherDisplay:10.37 W/m2 FEW
23:05 -16.5 °C -17 °C 33856.6 hPa SSE 1.3 km/h 11.9 km/h 94% 12.7 mm WeatherDisplay:10.37 W/m2 FEW
23:10 -16.5 °C -17 °C 33843.1 hPa South 10.1 km/h 35.7 km/h 94% 12.7 mm WeatherDisplay:10.37 W/m2 FEW
23:15 -16.5 °C -17 °C 33843.1 hPa SSE 9 km/h 32.8 km/h 94% 12.7 mm WeatherDisplay:10.37 W/m2 FEW
23:20 -16.4 °C -16.9 °C 33843.1 hPa SE 6.9 km/h 18.2 km/h 94% 12.7 mm WeatherDisplay:10.37 W/m2 FEW
23:25 -16.4 °C -16.9 °C 33832.9 hPa ESE 21.2 km/h 29.8 km/h 94% 12.7 mm WeatherDisplay:10.37 W/m2 FEW
23:30 -16.4 °C -16.8 °C 33822.8 hPa South 8.5 km/h 29.8 km/h 95% 7.62 mm WeatherDisplay:10.37 W/m2 FEW
23:35 -16.4 °C -16.9 °C 33822.8 hPa SE 8.2 km/h 38.8 km/h 94% 7.62 mm WeatherDisplay:10.37 W/m2 FEW
23:40 -16.4 °C -16.9 °C 33822.8 hPa South 3.4 km/h 6 km/h 94% 7.62 mm WeatherDisplay:10.37 W/m2 FEW
23:45 -16.4 °C -16.9 °C 33822.8 hPa West 9.7 km/h 29.8 km/h 94% 0 mm WeatherDisplay:10.37 W/m2 FEW
23:50 -16.4 °C -16.9 °C 33809.2 hPa SE 6.8 km/h 32.8 km/h 94% 0 mm WeatherDisplay:10.37 W/m2 FEW
23:55 -16.4 °C -16.9 °C 33809.2 hPa SE 18.2 km/h 33.6 km/h 94% 0 mm WeatherDisplay:10.37 W/m2 FEW
Tuulensuunkaari, Veikkola, Suomi
Compliments of Weather Underground - 2.5 mb